[[{"header":{"parameterUnit":"m.s-1","parameterCategory":1,"la1":30.2991,"la2":30.254,"lo1":-89.0895,"lo2":-89.0444,"dy":0.0017,"dx":0.0017,"nx":28,"ny":28,"refTime":"2023-09-05T09:00:00:Z","depth":0,"parameterNumber":2,"parameterNumberName":"U-component_of_WINDS"},"data":[0,0,0,0,0,0,0,0,0,0,0,0,0,0,0,0,0,0,0,0,0,0,0,0,0,0,0,0,0,0,0,0,0,0,0,0,0,0,0,0,0,0,0,0,0,0,0,0,0,0,0,0,0,0,0,0,0,0,2.1613,2.1614,0,2.1637,2.1637,2.1637,2.1603,2.1602,2.16,2.1599,2.1622,2.1623,2.1625,0,0,0,0,0,0,0,0,0,0,0,0,0,2.1537,2.1538,2.1613,2.1614,2.1614,2.1637,2.1637,2.1637,2.1603,2.1602,2.16,2.1599,2.1621,2.1623,2.1625,0,0,0,0,0,0,0,0,0,0,0,0,0,2.1566,2.1539,2.1613,2.16,2.1599,2.1637,2.1637,2.1637,2.1603,2.1602,2.16,2.1598,2.162,2.1623,2.1625,2.1677,0,0,2.1633,2.1634,0,0,0,0,0,0,0,0,2.1564,2.1569,2.1601,2.1601,2.16,2.1615,2.1618,2.1651,2.1604,2.1602,2.1599,2.1597,2.1621,2.1623,2.1631,2.1678,2.1679,2.1633,2.1635,2.1636,2.1637,0,0,0,0,0,0,0,2.1562,2.1568,2.1622,2.1602,2.1601,2.1591,2.1594,2.1624,2.1621,2.1602,2.1599,2.1602,2.162,2.1629,2.1632,2.1679,2.1633,2.1636,2.1637,2.1638,2.1768,2.1769,0,0,0,0,0,0,2.1562,2.1566,2.1622,2.1623,2.1577,2.1594,2.1597,2.1612,2.162,2.162,2.1604,2.1601,2.1625,2.1629,2.1632,2.1692,2.1636,2.1638,2.164,2.1766,2.1768,2.177,0,0,0,0,0,0,2.1561,2.1568,2.1621,2.1594,2.16,2.1598,2.1615,2.1613,2.1622,2.1622,2.1621,2.1614,2.1624,2.1629,2.1666,2.1692,2.164,2.1642,2.1764,2.1766,2.1769,2.1812,0,0,0,0,0,0,2.1559,2.1567,2.1588,2.1595,2.1602,2.1655,2.1616,2.1615,2.1627,2.1623,2.1631,2.1631,2.1623,2.1662,2.1668,2.1695,2.1644,2.1761,2.1765,2.1768,2.1808,2.1816,2.1823,0,0,0,0,0,2.1556,2.1599,2.1589,2.1596,2.1627,2.1656,2.166,2.1651,2.1629,2.1649,2.1649,2.1631,2.1689,2.1666,2.1673,2.17,2.1759,2.1764,2.1768,2.1805,2.1815,2.1823,0,0,0,0,0,0,2.1595,2.16,2.1588,2.1635,2.1646,2.1651,2.1675,2.1661,2.1678,2.1673,2.166,2.1663,2.1702,2.1705,2.168,2.175,2.172,2.1726,2.1746,2.1755,2.1762,2.176,2.1646,0,0,0,0,0,2.1609,2.1633,2.1636,2.1676,2.1682,2.1678,2.1691,2.1682,2.1692,2.1696,2.1699,2.1709,2.1729,2.1743,2.1761,2.1809,2.1809,2.1831,2.1839,2.1844,2.1849,2.1873,2.1882,2.1784,2.1784,2.1784,0,0,2.1638,2.1643,2.1659,2.1684,2.1691,2.1715,2.1682,2.1709,2.1727,2.17,2.1735,2.1738,2.1748,2.179,2.1809,2.1794,2.1876,2.185,2.1855,2.1856,2.1878,2.1887,2.1895,2.1787,2.1787,2.1786,0,0,2.1702,2.171,2.1744,2.1752,2.1763,2.176,2.1768,2.1775,2.1775,2.181,2.179,2.1811,2.1846,2.1854,2.1862,2.1929,2.1912,2.1935,2.1973,2.1996,2.2003,2.201,2.2032,2.204,2.194,2.1941,2.1941,0,2.1737,2.1773,2.1763,2.1791,2.1802,2.178,2.1813,2.1821,2.1838,2.1845,2.1828,2.1871,2.1877,2.192,2.1936,2.1944,2.1952,2.1934,2.2003,2.201,2.2016,2.2036,2.2045,2.1943,2.1943,2.1943,2.1942,0,2.1814,2.1839,2.1865,2.1881,2.1895,2.1926,2.1919,2.1934,2.1925,2.1923,2.1958,2.1964,2.1982,2.1992,2.1983,2.2033,2.2023,2.2005,2.1975,2.2028,2.2047,2.2055,2.1947,2.1946,2.1945,2.1944,0,0,2.1903,2.1913,2.1923,2.1929,2.1939,2.1958,2.1987,2.2006,2.2018,2.203,2.2053,2.2084,2.2066,2.2076,2.2068,2.2088,2.2138,2.2067,2.2067,2.2079,2.2191,2.2204,2.2213,2.2128,2.2129,2.2131,2.219,0,2.1966,2.2017,2.2008,2.2056,2.2078,2.2057,2.2082,2.2091,2.209,2.2108,2.2106,2.2127,2.2104,2.211,2.2129,2.2128,2.216,2.2124,2.2148,2.2149,2.2144,2.2223,2.2237,2.2292,2.2197,2.2199,2.22,0,2.2046,2.2061,2.2112,2.2117,2.2126,2.2149,2.2164,2.2182,2.2191,2.2188,2.2199,2.2186,2.2214,2.2185,2.2222,2.2197,2.2206,2.2207,2.2209,2.2209,2.2176,2.2224,2.231,2.2318,2.2212,2.2211,2.221,0,2.2104,2.2137,2.217,2.2177,2.2185,2.2201,2.2205,2.2212,2.2223,2.2236,2.2243,2.226,2.2268,2.2281,2.2273,2.2252,2.231,2.2281,2.2308,2.2308,2.232,2.2319,2.2407,2.2329,2.2329,2.2329,2.2329,0,2.2174,2.2205,2.2196,2.2217,2.2251,2.224,2.2274,2.2275,2.2282,2.2301,2.2285,2.2303,2.2292,2.231,2.2304,2.2334,2.2339,2.2337,2.2335,2.2337,2.2337,2.2342,2.2337,2.2331,2.2331,2.233,2.233,0,2.2243,2.2239,2.2274,2.2278,2.228,2.2305,2.2308,2.2327,2.2324,2.2349,2.2355,2.2351,2.2371,2.2364,2.2386,2.2381,2.242,2.2413,2.2417,2.2414,2.2441,2.2438,2.2534,2.2545,2.2462,2.2463,2.2463,0,2.2288,2.2311,2.2318,2.233,2.2335,2.2355,2.2366,2.2356,2.2368,2.2379,2.2396,2.2415,2.2429,2.2461,2.246,2.2476,2.2468,2.2501,2.2471,2.2472,2.2467,2.2465,2.2466,2.2506,2.2507,2.2508,2.2509,0,2.2366,2.2362,2.2379,2.2395,2.2408,2.242,2.2431,2.2441,2.2432,2.2446,2.2466,2.2477,2.2499,2.2517,2.2531,2.2534,2.2519,2.2518,2.2525,2.2527,2.2528,2.2526,2.2431,2.2516,2.2515,2.2515,2.2514,2.2514,2.2423,2.2442,2.2449,2.2468,2.2475,2.2484,2.2502,2.2501,2.2518,2.2534,2.2528,2.255,2.2557,2.2575,2.258,2.2597,2.2584,2.2595,2.2597,2.2599,2.2602,2.2526,2.26,2.2599,2.2599,2.2599,2.2599,0,2.2499,2.2502,2.2519,2.2534,2.2548,2.2534,2.2544,2.2557,2.2577,2.2585,2.2599,2.2621,2.2638,2.2638,2.2654,2.2667,2.2661,2.2672,2.2669,2.267,2.2613,2.2605,2.2676,2.2676,2.2676,2.2676,2.2676,2.2676,2.2539,2.257,2.2567,2.2601,2.2604,2.2626,2.2633,2.2641,2.2647,2.2673,2.2687,2.2687,2.2691,2.2706,2.2721,2.272,2.2726,2.2739,2.2736,2.2682,2.2674,2.2667,2.2659,2.2741,2.2741,2.2791,2.2792,2.2792]},{"header":{"parameterUnit":"m.s-1","parameterCategory":1,"la1":30.2991,"la2":30.254,"lo1":-89.0895,"lo2":-89.0444,"dy":0.0017,"dx":0.0017,"nx":28,"ny":28,"refTime":"2023-09-05T09:00:00:Z","depth":0,"parameterNumber":3,"parameterNumberName":"V-component_of_WINDS"},"data":[0,0,0,0,0,0,0,0,0,0,0,0,0,0,0,0,0,0,0,0,0,0,0,0,0,0,0,0,0,0,0,0,0,0,0,0,0,0,0,0,0,0,0,0,0,0,0,0,0,0,0,0,0,0,0,0,0,0,0.7966,0.7968,0,0.8109,0.8111,0.8113,0.8165,0.8164,0.8164,0.8163,0.831,0.8315,0.8319,0,0,0,0,0,0,0,0,0,0,0,0,0,0.7736,0.774,0.7966,0.7968,0.797,0.8109,0.8111,0.8113,0.8165,0.8164,0.8164,0.8163,0.8309,0.8314,0.8319,0,0,0,0,0,0,0,0,0,0,0,0,0,0.7853,0.7741,0.7966,0.8012,0.8018,0.8109,0.8111,0.8114,0.8165,0.8164,0.8164,0.8163,0.8307,0.8314,0.832,0.8375,0,0,0.834,0.8343,0,0,0,0,0,0,0,0,0.7847,0.7862,0.8004,0.8009,0.8016,0.8118,0.8084,0.8201,0.8165,0.8109,0.8163,0.8162,0.8247,0.8259,0.8287,0.8382,0.8389,0.8341,0.8345,0.8348,0.8349,0,0,0,0,0,0,0,0.7838,0.7856,0.8023,0.8006,0.8013,0.8026,0.8041,0.8107,0.8181,0.8114,0.8118,0.8134,0.825,0.8281,0.8291,0.8391,0.8341,0.8346,0.835,0.8353,0.8537,0.8538,0,0,0,0,0,0,0.7823,0.7849,0.8018,0.8027,0.7928,0.803,0.8048,0.8086,0.818,0.8194,0.8135,0.8136,0.827,0.8283,0.8296,0.8366,0.8347,0.8354,0.8357,0.8536,0.8537,0.8538,0,0,0,0,0,0,0.7817,0.7837,0.8012,0.7939,0.7962,0.8035,0.8077,0.8089,0.812,0.8196,0.8209,0.8152,0.827,0.8287,0.8355,0.8372,0.8357,0.8363,0.8535,0.8536,0.8538,0.8507,0,0,0,0,0,0,0.7811,0.7835,0.7857,0.7939,0.7966,0.8069,0.8079,0.8093,0.8131,0.8134,0.8216,0.8229,0.8271,0.8345,0.8361,0.8381,0.8368,0.8534,0.8535,0.8537,0.8507,0.8508,0.8508,0,0,0,0,0,0.7802,0.7843,0.7858,0.7878,0.7995,0.807,0.8085,0.8133,0.8132,0.8155,0.8203,0.8226,0.8367,0.8351,0.8371,0.8392,0.8533,0.8535,0.8537,0.8507,0.8507,0.8508,0,0,0,0,0,0,0.7762,0.7855,0.7872,0.7941,0.7997,0.8078,0.8109,0.8132,0.8189,0.819,0.8246,0.8264,0.8327,0.8367,0.8347,0.845,0.8451,0.8458,0.8422,0.8423,0.8424,0.8413,0.8373,0,0,0,0,0,0.7761,0.7814,0.7892,0.7945,0.7973,0.8035,0.807,0.8101,0.8162,0.8186,0.8239,0.8297,0.8354,0.8391,0.8448,0.8513,0.8531,0.8537,0.8537,0.8537,0.8542,0.8578,0.8581,0.8545,0.8545,0.8545,0,0,0.776,0.7817,0.7847,0.7939,0.7986,0.8039,0.8055,0.8111,0.8151,0.8194,0.8261,0.8302,0.837,0.8436,0.8468,0.8471,0.8556,0.854,0.8539,0.8544,0.8581,0.8584,0.8587,0.8547,0.8546,0.8546,0,0,0.7785,0.7834,0.7883,0.7929,0.8,0.8041,0.8053,0.813,0.8159,0.8227,0.826,0.8308,0.8406,0.8453,0.849,0.853,0.8553,0.8547,0.8549,0.8584,0.8586,0.8589,0.8603,0.8607,0.8551,0.8551,0.8551,0,0.7775,0.7856,0.7905,0.7959,0.7998,0.8039,0.8088,0.8131,0.8217,0.8242,0.8244,0.8367,0.8416,0.8493,0.8502,0.8531,0.8545,0.8538,0.8582,0.8585,0.8589,0.8602,0.8608,0.855,0.855,0.855,0.855,0,0.7839,0.7895,0.7926,0.8007,0.805,0.8101,0.8157,0.8194,0.8221,0.8262,0.833,0.839,0.8459,0.848,0.8507,0.856,0.856,0.8571,0.8574,0.859,0.8604,0.861,0.8548,0.8549,0.8549,0.8549,0,0,0.7845,0.795,0.7961,0.7998,0.8078,0.8122,0.8174,0.8242,0.8272,0.8329,0.8374,0.8455,0.8466,0.8507,0.854,0.857,0.8597,0.8578,0.858,0.8579,0.8659,0.8649,0.8655,0.8613,0.8614,0.8615,0.8653,0,0.788,0.7976,0.802,0.8096,0.8148,0.8186,0.8232,0.8286,0.8325,0.8374,0.8417,0.8474,0.8483,0.8508,0.854,0.8587,0.8614,0.8585,0.8655,0.8657,0.8637,0.8662,0.8653,0.8686,0.8658,0.8659,0.866,0,0.7934,0.799,0.8071,0.8143,0.8167,0.8207,0.8271,0.8318,0.8379,0.8406,0.8451,0.8482,0.8538,0.8536,0.8614,0.8594,0.8625,0.8652,0.8654,0.8663,0.8659,0.8671,0.8698,0.8703,0.8669,0.8669,0.8668,0,0.7928,0.8024,0.8085,0.8115,0.8201,0.8229,0.8266,0.8326,0.8363,0.842,0.8444,0.8506,0.854,0.8587,0.8634,0.8629,0.8707,0.871,0.873,0.8729,0.8746,0.8744,0.8777,0.8765,0.8765,0.8765,0.8765,0,0.7963,0.8011,0.8083,0.8121,0.8175,0.8225,0.8278,0.8318,0.8371,0.8416,0.8453,0.8495,0.8555,0.8604,0.8641,0.8699,0.8714,0.8737,0.8746,0.8734,0.873,0.8755,0.8754,0.8767,0.8766,0.8766,0.8766,0,0.7966,0.8017,0.8085,0.8161,0.8181,0.8217,0.8282,0.8319,0.8359,0.8416,0.8432,0.8496,0.8555,0.8607,0.8685,0.871,0.877,0.8781,0.8749,0.8754,0.8772,0.8769,0.8822,0.8831,0.8813,0.8813,0.8813,0,0.7985,0.8023,0.8102,0.8134,0.8171,0.8223,0.8261,0.8312,0.8349,0.8421,0.8449,0.8511,0.8563,0.8656,0.8709,0.8769,0.8782,0.8797,0.8792,0.8777,0.8782,0.8779,0.8783,0.8797,0.8797,0.8797,0.8797,0,0.8013,0.8035,0.8088,0.8149,0.8193,0.8244,0.8295,0.832,0.838,0.8421,0.8481,0.8522,0.8601,0.8662,0.8728,0.8766,0.8791,0.8798,0.8806,0.8793,0.8773,0.8784,0.8749,0.8796,0.8796,0.8796,0.8796,0.8797,0.8024,0.8059,0.8119,0.8177,0.822,0.8268,0.8306,0.835,0.8402,0.847,0.8497,0.8559,0.8618,0.8709,0.8747,0.8795,0.88,0.8811,0.8814,0.8816,0.8814,0.8765,0.8808,0.8808,0.8808,0.8808,0.8808,0,0.8053,0.8094,0.8146,0.8216,0.8261,0.828,0.8338,0.8374,0.8428,0.8481,0.8531,0.86,0.8659,0.8716,0.8777,0.8806,0.8819,0.882,0.8818,0.8827,0.8807,0.8794,0.8808,0.8808,0.8808,0.8808,0.8808,0.8808,0.8074,0.8133,0.8162,0.8243,0.8284,0.8344,0.8375,0.8419,0.8461,0.8536,0.8585,0.8622,0.8676,0.8742,0.8796,0.8811,0.8832,0.883,0.8848,0.8829,0.8828,0.8828,0.8815,0.8834,0.8834,0.8864,0.8865,0.8865]}]]